OCN5KT LGKF-EDDF

Flight info

Callsign OCN5KT
Flight time N/A
Altitude 36000
Route ROTSA UA14 KRK UL53 OLGAT DCT CRAYE DCT GISAM DCT PALEZ DCT SABAD DCT NIPEL DCT SIMBA DCT AKINI T161 DEBHI DEBHI1A
Aircraft A320/M-SDE3FGHIRWY/LB1

Departure

Time N/A
Airport Kefallinia Airport (LGKF)

Arrival

Time 2026-05-06 16:18
Airport Frankfurt Main Airport (EDDF)
Time Latitude Longitude Altitude Speed Heading
2026-05-06 15:09 44.80835 15.36142 35955 ft 444 kts 326°
2026-05-06 15:10 44.86307 15.32053 35959 ft 445 kts 326°
2026-05-06 15:10 44.91778 15.27974 35949 ft 445 kts 326°
2026-05-06 15:11 44.97258 15.23891 35949 ft 445 kts 327°
2026-05-06 15:11 45.02732 15.19807 35944 ft 445 kts 327°
2026-05-06 15:12 45.08212 15.15717 35942 ft 445 kts 327°
2026-05-06 15:12 45.13694 15.11619 35940 ft 445 kts 327°
2026-05-06 15:13 45.19164 15.07506 35955 ft 446 kts 326°
2026-05-06 15:13 45.24650 15.03369 35942 ft 446 kts 326°
2026-05-06 15:14 45.30140 14.99222 35945 ft 447 kts 326°
2026-05-06 15:14 45.35630 14.95069 35942 ft 447 kts 326°
2026-05-06 15:15 45.41089 14.90930 35938 ft 447 kts 327°
2026-05-06 15:15 45.46588 14.86751 35950 ft 448 kts 326°
2026-05-06 15:16 45.52049 14.82467 35936 ft 447 kts 325°
2026-05-06 15:16 45.57458 14.78083 35943 ft 448 kts 325°
2026-05-06 15:17 45.62878 14.73690 35944 ft 448 kts 325°
2026-05-06 15:17 45.68314 14.69319 35942 ft 448 kts 325°
2026-05-06 15:18 45.73755 14.64945 35940 ft 449 kts 325°
2026-05-06 15:18 45.79193 14.60552 35932 ft 449 kts 325°
2026-05-06 15:19 45.84639 14.56143 35930 ft 450 kts 325°
2026-05-06 15:19 45.90088 14.51721 35922 ft 450 kts 325°
2026-05-06 15:20 45.95533 14.47288 35929 ft 449 kts 324°
2026-05-06 15:20 46.00964 14.42845 35930 ft 449 kts 324°
2026-05-06 15:21 46.06402 14.38398 35941 ft 450 kts 324°
2026-05-06 15:21 46.11851 14.33941 35934 ft 450 kts 324°
2026-05-06 15:22 46.17300 14.29466 35929 ft 451 kts 324°
2026-05-06 15:22 46.22748 14.24975 35927 ft 451 kts 324°
2026-05-06 15:23 46.28199 14.20474 35921 ft 451 kts 324°
2026-05-06 15:23 46.33655 14.15970 35916 ft 452 kts 325°
2026-05-06 15:24 46.39111 14.11453 35918 ft 451 kts 324°
2026-05-06 15:24 46.44559 14.06919 35894 ft 452 kts 324°
2026-05-06 15:25 46.50070 14.02622 35885 ft 456 kts 333°
2026-05-06 15:25 46.56006 13.99278 35885 ft 458 kts 333°
2026-05-06 15:26 46.61947 13.95935 35880 ft 457 kts 333°
2026-05-06 15:26 46.67885 13.92564 35881 ft 457 kts 333°
2026-05-06 15:27 46.73801 13.89186 35892 ft 457 kts 333°
2026-05-06 15:27 46.79724 13.85815 35884 ft 456 kts 333°
2026-05-06 15:28 46.85632 13.82438 35880 ft 456 kts 333°
2026-05-06 15:28 46.91541 13.79050 35868 ft 456 kts 333°
2026-05-06 15:29 46.97454 13.75654 35885 ft 456 kts 332°
2026-05-06 15:29 47.03357 13.72252 35863 ft 456 kts 332°
2026-05-06 15:30 47.09267 13.68842 35859 ft 456 kts 332°
2026-05-06 15:30 47.15166 13.65426 35849 ft 456 kts 332°
2026-05-06 15:31 47.21081 13.61999 35844 ft 457 kts 331°
2026-05-06 15:31 47.27010 13.58553 35794 ft 459 kts 331°
2026-05-06 15:32 47.35937 13.53349 35750 ft 460 kts 331°
2026-05-06 15:32 47.41902 13.49863 35758 ft 461 kts 331°
2026-05-06 15:33 47.47836 13.46396 35754 ft 462 kts 331°
2026-05-06 15:33 47.53817 13.42889 35725 ft 463 kts 331°
2026-05-06 15:34 47.59814 13.39352 35715 ft 464 kts 331°
2026-05-06 15:34 47.65820 13.35809 35716 ft 465 kts 331°
2026-05-06 15:35 47.71880 13.32224 35700 ft 466 kts 331°
2026-05-06 15:35 47.77869 13.28662 35699 ft 466 kts 331°
2026-05-06 15:36 47.83909 13.25067 35688 ft 467 kts 331°
2026-05-06 15:36 47.89944 13.21474 35730 ft 467 kts 331°
2026-05-06 15:37 47.95941 13.17888 35708 ft 467 kts 331°
2026-05-06 15:37 48.01978 13.14261 35699 ft 467 kts 331°
2026-05-06 15:38 48.08020 13.10637 35697 ft 468 kts 331°
2026-05-06 15:38 48.14064 13.07007 35696 ft 468 kts 331°
2026-05-06 15:39 48.20059 13.03242 35703 ft 462 kts 324°
2026-05-06 15:39 48.25186 12.97774 35702 ft 444 kts 308°
2026-05-06 15:40 48.29309 12.90962 35728 ft 440 kts 304°
2026-05-06 15:40 48.33362 12.84071 35708 ft 440 kts 304°
2026-05-06 15:41 48.37379 12.77249 35713 ft 440 kts 304°
2026-05-06 15:41 48.41450 12.70325 35706 ft 440 kts 304°
2026-05-06 15:42 48.45498 12.63398 35710 ft 440 kts 304°
2026-05-06 15:42 48.49512 12.56507 35711 ft 440 kts 304°
2026-05-06 15:43 48.53552 12.49554 35717 ft 441 kts 304°
2026-05-06 15:43 48.57595 12.42592 35718 ft 441 kts 304°
2026-05-06 15:44 48.61632 12.35615 35725 ft 440 kts 304°
2026-05-06 15:44 48.65628 12.28683 35735 ft 440 kts 304°
2026-05-06 15:45 48.69657 12.21679 35761 ft 441 kts 304°
2026-05-06 15:45 48.73419 12.14435 35750 ft 431 kts 293°
2026-05-06 15:46 48.75598 12.06170 35745 ft 417 kts 277°
2026-05-06 15:46 48.76570 11.97615 35746 ft 414 kts 274°
2026-05-06 15:47 48.77505 11.88986 35756 ft 415 kts 274°
2026-05-06 15:47 48.78430 11.80347 35791 ft 415 kts 273°
2026-05-06 15:48 48.79344 11.71687 35794 ft 415 kts 273°
2026-05-06 15:48 48.80096 11.64499 35788 ft 416 kts 273°
2026-05-06 15:49 48.80994 11.55835 35787 ft 415 kts 273°
2026-05-06 15:49 48.81894 11.47179 35787 ft 415 kts 273°
2026-05-06 15:50 48.82798 11.38520 35803 ft 415 kts 273°
2026-05-06 15:50 48.83687 11.29854 35772 ft 417 kts 275°
2026-05-06 15:51 48.85754 11.21498 35751 ft 434 kts 295°
2026-05-06 15:51 48.87561 11.17781 35749 ft 443 kts 306°
2026-05-06 15:51 48.89800 11.14515 35745 ft 448 kts 311°
2026-05-06 15:52 48.94411 11.08130 35694 ft 450 kts 310°
2026-05-06 15:52 48.96724 11.04899 35036 ft 454 kts 310°
2026-05-06 15:52 48.99059 11.01621 34170 ft 460 kts 309°
2026-05-06 15:53 49.01420 10.98293 33185 ft 465 kts 309°
2026-05-06 15:53 49.03806 10.94924 32242 ft 468 kts 310°
2026-05-06 15:53 49.06182 10.91582 31724 ft 462 kts 310°
2026-05-06 15:53 49.08539 10.88280 31094 ft 458 kts 310°
2026-05-06 15:54 49.10879 10.84994 30495 ft 455 kts 310°
2026-05-06 15:54 49.13192 10.81730 29904 ft 451 kts 310°
2026-05-06 15:54 49.15487 10.78480 29248 ft 447 kts 311°
2026-05-06 15:54 49.17723 10.75303 28682 ft 442 kts 311°
2026-05-06 15:55 49.19962 10.72114 28099 ft 437 kts 310°
2026-05-06 15:55 49.22130 10.68892 27548 ft 431 kts 309°
2026-05-06 15:55 49.24219 10.65627 26942 ft 427 kts 309°
2026-05-06 15:55 49.26259 10.62347 26402 ft 423 kts 309°
2026-05-06 15:56 49.28271 10.59086 25837 ft 419 kts 309°
2026-05-06 15:56 49.30272 10.55852 25306 ft 415 kts 309°
2026-05-06 15:56 49.32255 10.52671 24783 ft 411 kts 310°
2026-05-06 15:56 49.34236 10.49521 24279 ft 407 kts 310°
2026-05-06 15:57 49.36146 10.46365 23787 ft 400 kts 305°
2026-05-06 15:57 49.37762 10.42946 23433 ft 392 kts 302°
2026-05-06 15:57 49.39304 10.39593 23118 ft 389 kts 303°
2026-05-06 15:57 49.41206 10.36653 22671 ft 391 kts 320°
2026-05-06 15:58 49.43366 10.34135 22191 ft 387 kts 315°
2026-05-06 15:58 49.45334 10.31269 21705 ft 384 kts 313°
2026-05-06 15:58 49.47236 10.28401 21243 ft 382 kts 312°
2026-05-06 15:58 49.49102 10.25568 20784 ft 381 kts 312°
2026-05-06 15:59 49.50985 10.22701 20326 ft 380 kts 312°
2026-05-06 15:59 49.52855 10.19850 19875 ft 377 kts 312°
2026-05-06 15:59 49.54714 10.17012 19426 ft 375 kts 312°
2026-05-06 15:59 49.56559 10.14191 18994 ft 373 kts 312°
2026-05-06 16:00 49.58392 10.11387 18558 ft 371 kts 312°
2026-05-06 16:00 49.60218 10.08592 18137 ft 369 kts 312°
2026-05-06 16:00 49.62029 10.05817 17656 ft 366 kts 312°
2026-05-06 16:00 49.63851 10.03023 17169 ft 377 kts 312°
2026-05-06 16:01 49.65724 10.00130 16692 ft 383 kts 312°
2026-05-06 16:01 49.67601 9.97218 16222 ft 382 kts 312°
2026-05-06 16:01 49.69468 9.94312 15776 ft 380 kts 312°
2026-05-06 16:01 49.71315 9.91410 15317 ft 377 kts 312°
2026-05-06 16:02 49.73141 9.88525 14866 ft 374 kts 312°
2026-05-06 16:02 49.74955 9.85655 14432 ft 371 kts 312°
2026-05-06 16:02 49.76751 9.82809 13984 ft 369 kts 312°
2026-05-06 16:02 49.78534 9.79965 13560 ft 367 kts 312°
2026-05-06 16:03 49.80317 9.77157 13079 ft 365 kts 314°
2026-05-06 16:03 49.82135 9.74431 12606 ft 362 kts 314°
2026-05-06 16:03 49.83943 9.71737 12129 ft 359 kts 314°
2026-05-06 16:03 49.85739 9.69056 11671 ft 357 kts 314°
2026-05-06 16:04 49.87523 9.66401 11221 ft 354 kts 314°
2026-05-06 16:04 49.89285 9.63759 10802 ft 349 kts 314°
2026-05-06 16:04 49.91005 9.61192 10409 ft 335 kts 314°
2026-05-06 16:04 49.92642 9.58763 10100 ft 316 kts 314°
2026-05-06 16:05 49.94193 9.56479 9825 ft 299 kts 314°
2026-05-06 16:05 49.95677 9.54327 9524 ft 284 kts 314°
2026-05-06 16:05 49.97087 9.52283 9195 ft 271 kts 314°
2026-05-06 16:05 49.98426 9.50337 8960 ft 257 kts 314°
2026-05-06 16:06 49.99722 9.48472 8587 ft 253 kts 314°
2026-05-06 16:06 50.01114 9.46767 8197 ft 255 kts 320°
2026-05-06 16:06 50.02257 9.44769 7814 ft 250 kts 293°
2026-05-06 16:06 50.02612 9.42192 7529 ft 242 kts 268°
2026-05-06 16:07 50.02542 9.39604 7310 ft 237 kts 264°
2026-05-06 16:07 50.02426 9.37056 7026 ft 237 kts 264°
2026-05-06 16:07 50.02301 9.34479 6655 ft 241 kts 264°
2026-05-06 16:07 50.02170 9.31885 6281 ft 239 kts 264°
2026-05-06 16:08 50.02048 9.29350 5897 ft 232 kts 264°
2026-05-06 16:08 50.01936 9.26869 5508 ft 229 kts 268°
2026-05-06 16:08 50.02311 9.24497 5114 ft 230 kts 299°
2026-05-06 16:08 50.03473 9.22799 4739 ft 235 kts 331°
2026-05-06 16:09 50.05036 9.21986 4369 ft 238 kts 342°
2026-05-06 16:09 50.06655 9.21388 4014 ft 240 kts 343°
2026-05-06 16:09 50.08274 9.20826 3978 ft 239 kts 344°
2026-05-06 16:09 50.09786 9.19862 3975 ft 233 kts 317°
2026-05-06 16:10 50.10731 9.17902 3986 ft 225 kts 289°
2026-05-06 16:10 50.11261 9.15615 3980 ft 225 kts 285°
2026-05-06 16:10 50.11715 9.13325 3982 ft 225 kts 284°
2026-05-06 16:10 50.12172 9.10957 3981 ft 224 kts 284°
2026-05-06 16:11 50.12615 9.08634 3988 ft 224 kts 284°
2026-05-06 16:11 50.13052 9.06302 3985 ft 224 kts 284°
2026-05-06 16:11 50.13491 9.03959 3993 ft 225 kts 284°
2026-05-06 16:11 50.13896 9.01606 3985 ft 225 kts 276°
2026-05-06 16:12 50.13663 8.99292 4008 ft 220 kts 247°
2026-05-06 16:12 50.13085 8.97044 3995 ft 227 kts 248°
2026-05-06 16:12 50.12525 8.94735 3997 ft 228 kts 250°
2026-05-06 16:12 50.11981 8.92420 3968 ft 220 kts 250°
2026-05-06 16:13 50.11492 8.90331 3964 ft 190 kts 249°
2026-05-06 16:13 50.11056 8.88473 4010 ft 180 kts 249°
2026-05-06 16:13 50.10628 8.86651 4000 ft 179 kts 249°
2026-05-06 16:13 50.10200 8.84833 3870 ft 179 kts 249°
2026-05-06 16:14 50.09773 8.83022 3655 ft 176 kts 250°
2026-05-06 16:14 50.09350 8.81224 3441 ft 178 kts 250°
2026-05-06 16:14 50.08926 8.79428 3208 ft 176 kts 250°
2026-05-06 16:14 50.08503 8.77632 2971 ft 177 kts 250°
2026-05-06 16:15 50.08084 8.75860 2729 ft 170 kts 250°
2026-05-06 16:15 50.07692 8.74203 2528 ft 154 kts 251°
2026-05-06 16:15 50.07340 8.72720 2297 ft 139 kts 251°
2026-05-06 16:15 50.06994 8.71316 2037 ft 138 kts 251°
2026-05-06 16:16 50.06641 8.69936 1822 ft 137 kts 251°
2026-05-06 16:16 50.06312 8.68542 1631 ft 135 kts 255°
2026-05-06 16:16 50.06009 8.67171 1513 ft 133 kts 251°
2026-05-06 16:16 50.05671 8.65821 1426 ft 134 kts 252°
2026-05-06 16:17 50.05349 8.64474 1296 ft 131 kts 253°
2026-05-06 16:17 50.05047 8.63144 1075 ft 131 kts 254°
2026-05-06 16:17 50.04735 8.61824 860 ft 130 kts 252°
2026-05-06 16:17 50.04435 8.60509 664 ft 129 kts 254°
2026-05-06 16:18 50.04130 8.59200 488 ft 128 kts 252°
2026-05-06 16:18 50.03826 8.57914 365 ft 118 kts 251°
2026-05-06 16:18 50.03597 8.56920 353 ft 73 kts 251°
2026-05-06 16:18 50.03462 8.56353 354 ft 46 kts 250°
2026-05-06 16:19 50.03445 8.55992 349 ft 23 kts 281°
2026-05-06 16:19 50.03463 8.55842 348 ft 13 kts 279°
2026-05-06 16:19 50.03473 8.55726 346 ft 7 kts 279°
2026-05-06 16:19 50.03475 8.55705 345 ft 1 kts 280°
2026-05-06 16:20 50.03481 8.55701 351 ft 5 kts 325°
2026-05-06 16:20 50.03548 8.55733 352 ft 13 kts 50°
2026-05-06 16:20 50.03580 8.55839 355 ft 9 kts 69°
2026-05-06 16:20 50.03600 8.55923 356 ft 7 kts 71°
2026-05-06 16:21 50.03616 8.55995 357 ft 11 kts 69°
2026-05-06 16:21 50.03654 8.56148 355 ft 15 kts 69°
2026-05-06 16:21 50.03690 8.56297 355 ft 14 kts 70°
2026-05-06 16:21 50.03721 8.56433 358 ft 14 kts 70°
2026-05-06 16:22 50.03758 8.56585 360 ft 16 kts 69°
2026-05-06 16:22 50.03796 8.56739 360 ft 15 kts 69°
2026-05-06 16:22 50.03828 8.56874 357 ft 12 kts 70°
2026-05-06 16:22 50.03855 8.56992 357 ft 10 kts 70°
2026-05-06 16:23 50.03888 8.57126 362 ft 14 kts 69°
2026-05-06 16:23 50.03917 8.57244 362 ft 10 kts 69°
2026-05-06 16:23 50.03948 8.57370 363 ft 14 kts 69°
2026-05-06 16:23 50.03978 8.57498 366 ft 12 kts 71°
2026-05-06 16:24 50.04002 8.57606 368 ft 10 kts 71°
2026-05-06 16:24 50.04031 8.57731 370 ft 18 kts 70°
2026-05-06 16:24 50.04075 8.57913 369 ft 17 kts 69°
2026-05-06 16:24 50.04115 8.58072 371 ft 15 kts 69°
2026-05-06 16:25 50.04185 8.58170 367 ft 14 kts 25°
2026-05-06 16:25 50.04257 8.58214 370 ft 9 kts
2026-05-06 16:25 50.04285 8.58205 369 ft 0 kts 339°
2026-05-06 16:27 50.04308 8.58191 367 ft 9 kts 338°
2026-05-06 16:28 50.04373 8.58151 370 ft 12 kts 339°
2026-05-06 16:28 50.04468 8.58097 366 ft 17 kts 340°
2026-05-06 16:28 50.04586 8.58030 364 ft 21 kts 339°
2026-05-06 16:28 50.04691 8.57969 359 ft 8 kts 339°
2026-05-06 16:29 50.04711 8.57957 361 ft 0 kts 340°
2026-05-06 16:29 50.04712 8.57957 361 ft 1 kts 340°
2026-05-06 16:29 50.04742 8.57940 361 ft 6 kts 340°
2026-05-06 16:30 50.04790 8.57940 360 ft 8 kts 26°
2026-05-06 16:30 50.04809 8.57979 358 ft 7 kts 67°
2026-05-06 16:30 50.04819 8.58002 360 ft 1 kts 52°
2026-05-06 16:30 50.04822 8.58011 361 ft 3 kts 58°
2026-05-06 16:31 50.04832 8.58079 364 ft 7 kts 77°
2026-05-06 16:31 50.04843 8.58130 360 ft 5 kts 71°
2026-05-06 16:31 50.04871 8.58251 359 ft 15 kts 68°
2026-05-06 16:31 50.04908 8.58393 363 ft 13 kts 68°
2026-05-06 16:32 50.04939 8.58520 361 ft 12 kts 70°
2026-05-06 16:32 50.04972 8.58656 362 ft 13 kts 71°
2026-05-06 16:32 50.04997 8.58781 361 ft 7 kts 72°
2026-05-06 16:32 50.04981 8.58825 364 ft 4 kts 157°
2026-05-06 16:33 50.04957 8.58840 363 ft 4 kts 159°
2026-05-06 16:33 50.04938 8.58851 363 ft 4 kts 159°
2026-05-06 16:33 50.04920 8.58861 363 ft 2 kts 160°